Flag for Slovakia Weather past 2 weeks in Prešov, Slovakia

Now
37 °F

Overcast.


Feels Like: 30 °F
Forecast: 31 / 52 °F
Wind: 12 mph from Northeast

Location: Kosice - Barca

Current Time: Oct 25, 2014 at 2:24:55 AM

Latest Report: Oct 25, 2014 at 2:00 AM


Visibility: N/A

Pressure: 30.21 "Hg

Humidity: 81%

Dew point: 32 °F

Location of PrešovLocation

Historic Weather in Prešov — Graph

°F

Prešov temperature yesterday

Maximum temperature yesterday: 43 °F (at 12:00 AM)
Minimum temperature yesterday: 37 °F (at 3:30 PM)
Average temperature yesterday: 39 °F

Past Weeks' High & Low Weather Summary

 TemperatureHumidityPressure
High73 °F (Oct 12, 1:30 PM)100% (Oct 11, 6:00 AM)30.39 "Hg (Oct 11, 6:00 AM)
Low37 °F (Oct 24, 3:30 PM)53% (Oct 11, 2:30 PM)29.47 "Hg (Oct 22, 2:30 PM)
Average55 °F87%29.95 "Hg
* Reported Oct 10 1:00 AM — Oct 25 1:30 AM, Prešov, Weather by CustomWeather, © 2014

Note: Actual official high and low records may vary slightly from our data, if they occured in-between our weather recording intervals... More about our weather records

Advertising

Prešov weather history for previous 24 hours

 ConditionsComfort  
Time TempWeatherWind HumidityBarometerVisibility
1:30 AM
Oct 25
37 °FOvercast.13 mph81%30.21 "HgN/A
1:00 AM37 °FOvercast.12 mph81%30.21 "HgN/A
12:30 AM37 °FOvercast.12 mph81%30.21 "HgN/A
12:00 AM37 °FOvercast.10 mph81%30.21 "HgN/A
11:30 PM
Oct 24
37 °FOvercast.13 mph81%30.21 "HgN/A
11:00 PM37 °FOvercast.12 mph81%30.21 "HgN/A
10:30 PM37 °FPassing clouds.15 mph75%30.21 "HgN/A
10:00 PM37 °FPassing clouds.15 mph75%30.21 "HgN/A
9:30 PM37 °FPassing clouds.17 mph75%30.18 "HgN/A
9:00 PM37 °FPassing clouds.16 mph75%30.18 "HgN/A
8:30 PM37 °FPassing clouds.20 mph75%30.18 "HgN/A
8:00 PM37 °FPassing clouds.21 mph81%30.18 "HgN/A
7:30 PM37 °FPassing clouds.17 mph81%30.18 "HgN/A
7:00 PM37 °FOvercast.22 mph81%30.18 "HgN/A
6:30 PM37 °FLight rain. Overcast.24 mph81%30.18 "HgN/A
6:00 PM37 °FLight rain. Overcast.18 mph87%30.15 "HgN/A
5:30 PM37 °FLight rain. Partly sunny.25 mph87%30.15 "HgN/A
5:00 PM37 °FLight rain. Broken clouds.24 mph87%30.15 "Hg6 mi
4:30 PM37 °FLight rain. Partly sunny.24 mph81%30.15 "Hg6 mi
4:00 PM37 °FLight rain. Overcast.23 mph81%30.12 "Hg6 mi
3:30 PM37 °FLight rain. Partly sunny.25 mph81%30.12 "HgN/A
3:00 PM39 °FLight rain. Partly sunny.24 mph75%30.12 "HgN/A
2:30 PM39 °FLight rain. Partly sunny.24 mph75%30.12 "HgN/A
2:00 PM39 °FBroken clouds.28 mph75%30.12 "HgN/A
1:30 PM39 °FBroken clouds.30 mph75%30.12 "HgN/A
1:00 PM39 °FPartly sunny.28 mph70%30.09 "HgN/A
12:30 PM39 °FPartly sunny.28 mph70%30.09 "HgN/A
12:00 PM39 °FPartly sunny.26 mph75%30.09 "HgN/A
11:30 AM39 °FScattered clouds.32 mph75%30.07 "HgN/A
11:00 AM39 °FScattered clouds.30 mph75%30.07 "HgN/A
10:30 AM39 °FScattered clouds.29 mph75%30.07 "HgN/A
10:00 AM39 °FScattered clouds.32 mph75%30.07 "HgN/A
9:30 AM39 °FScattered clouds.33 mph75%30.04 "HgN/A
9:00 AM39 °FScattered clouds.30 mph75%30.04 "HgN/A
8:30 AM39 °FPassing clouds.31 mph81%30.04 "HgN/A
8:00 AM39 °FPassing clouds.25 mph81%30.01 "HgN/A
7:30 AM39 °FPassing clouds.29 mph81%30.01 "HgN/A
7:00 AM39 °FPassing clouds.30 mph81%30.01 "HgN/A
6:30 AM41 °FClear.30 mph81%29.98 "Hg10 mi
6:00 AM41 °FClear.30 mph81%29.98 "Hg10 mi
5:30 AM41 °FClear.30 mph81%29.98 "Hg10 mi
5:00 AM41 °FPassing clouds.29 mph81%29.95 "HgN/A
4:30 AM41 °FClear.30 mph81%29.95 "Hg10 mi
4:00 AM41 °FClear.32 mph81%29.95 "Hg10 mi
3:30 AM41 °FPassing clouds.32 mph81%29.95 "HgN/A
3:00 AM41 °FPassing clouds.33 mph81%29.95 "HgN/A
2:30 AM41 °FPassing clouds.33 mph81%29.95 "HgN/A
2:00 AM41 °FPassing clouds.35 mph87%29.95 "HgN/A
Weather by CustomWeather, © 2014

See weather overviewHow to use our weather pages